• în România
  • Lista ţărilor
  • Pe 7 zile
  • Temperatura apei
  • Hartă satelitară
  • Meteo pe hartă
  • Widget-uri
  • user-avatar
    Intrare

    Meteo pe oră la Batina

    Astăzi, 28 Martie, Marţi

    Timp Temperatura Precipitaţii Vânt Presiune Umiditate
    00:00 +8°C° 0 mm 2 m/s 673 mmHg 82%
    01:00 +8°C° 0 mm 2 m/s 673 mmHg 83%
    02:00 +7°C° 0 mm 2 m/s 672 mmHg 83%
    03:00 +7°C° 0 mm 2 m/s 672 mmHg 84%
    04:00 +8°C° 0 mm 1 m/s 672 mmHg 84%
    05:00 +8°C° 0 mm 1 m/s 673 mmHg 84%
    06:00 +8°C° 0 mm 1 m/s 673 mmHg 84%
    07:00 +10°C° 0 mm 1 m/s 674 mmHg 71%
    08:00 +12°C° 0 mm 2 m/s 674 mmHg 58%
    09:00 +15°C° 0 mm 2 m/s 675 mmHg 45%
    10:00 +16°C° 0 mm 2 m/s 675 mmHg 39%
    11:00 +17°C° 0 mm 3 m/s 676 mmHg 32%
    12:00 +18°C° 0 mm 4 m/s 676 mmHg 26%
    13:00 +18°C° 0 mm 4 m/s 676 mmHg 27%
    14:00 +17°C° 0 mm 5 m/s 675 mmHg 27%
    15:00 +17°C° 0 mm 5 m/s 675 mmHg 28%
    16:00 +15°C° 0 mm 5 m/s 675 mmHg 36%
    17:00 +13°C° 0 mm 4 m/s 674 mmHg 44%
    18:00 +11°C° 0 mm 4 m/s 674 mmHg 53%
    19:00 +10°C° 0 mm 3 m/s 674 mmHg 60%
    20:00 +8°C° 0 mm 3 m/s 674 mmHg 66%
    21:00 +7°C° 0 mm 2 m/s 674 mmHg 73%
    22:00 +6°C° 0 mm 2 m/s 674 mmHg 75%
    23:00 +6°C° 0 mm 2 m/s 674 mmHg 78%

    Mâine, 29 Martie, Miercuri

    Timp Temperatura Precipitaţii Vânt Presiune Umiditate
    00:00 +5°C° 0 mm 2 m/s 674 mmHg 80%
    01:00 +5°C° 0 mm 2 m/s 674 mmHg 80%
    02:00 +4°C° 0 mm 2 m/s 674 mmHg 81%
    03:00 +4°C° 0 mm 2 m/s 673 mmHg 81%
    04:00 +4°C° 0 mm 2 m/s 674 mmHg 81%
    05:00 +4°C° 0 mm 2 m/s 674 mmHg 80%
    06:00 +4°C° 0 mm 2 m/s 674 mmHg 80%
    07:00 +6°C° 0 mm 2 m/s 675 mmHg 69%
    08:00 +8°C° 0 mm 2 m/s 676 mmHg 59%
    09:00 +9°C° 0 mm 2 m/s 676 mmHg 48%
    10:00 +10°C° 0 mm 3 m/s 676 mmHg 43%
    11:00 +12°C° 0 mm 3 m/s 676 mmHg 38%
    12:00 +13°C° 0 mm 3 m/s 676 mmHg 34%
    13:00 +13°C° 0 mm 3 m/s 676 mmHg 33%
    14:00 +13°C° 0 mm 4 m/s 676 mmHg 32%
    15:00 +14°C° 0 mm 4 m/s 675 mmHg 32%
    16:00 +12°C° 0 mm 3 m/s 675 mmHg 38%
    17:00 +11°C° 0 mm 3 m/s 675 mmHg 45%
    18:00 +9°C° 0 mm 3 m/s 675 mmHg 52%
    19:00 +8°C° 0 mm 2 m/s 675 mmHg 60%
    20:00 +6°C° 0 mm 2 m/s 675 mmHg 68%
    21:00 +5°C° 0 mm 2 m/s 675 mmHg 76%
    22:00 +5°C° 0 mm 2 m/s 675 mmHg 79%
    23:00 +5°C° 0 mm 1 m/s 675 mmHg 82%

    Poimâine, 30 Martie, Joi

    Timp Temperatura Precipitaţii Vânt Presiune Umiditate
    00:00 +4°C° 0 mm 1 m/s 675 mmHg 84%
    01:00 +4°C° 0 mm 1 m/s 675 mmHg 84%
    02:00 +4°C° 0 mm 1 m/s 675 mmHg 83%
    03:00 +3°C° 0 mm 1 m/s 674 mmHg 83%
    04:00 +3°C° 0 mm 1 m/s 675 mmHg 81%
    05:00 +4°C° 0 mm 1 m/s 675 mmHg 80%
    06:00 +3°C° 0 mm 0 m/s 675 mmHg 78%
    07:00 +7°C° 0 mm 1 m/s 676 mmHg 63%
    08:00 +10°C° 0 mm 1 m/s 677 mmHg 49%
    09:00 +13°C° 0 mm 1 m/s 678 mmHg 34%
    10:00 +15°C° 0 mm 1 m/s 678 mmHg 31%
    11:00 +16°C° 0 mm 2 m/s 678 mmHg 27%
    12:00 +18°C° 0 mm 2 m/s 678 mmHg 23%
    13:00 +18°C° 0 mm 2 m/s 678 mmHg 23%
    14:00 +18°C° 0 mm 2 m/s 677 mmHg 22%
    15:00 +18°C° 0 mm 2 m/s 677 mmHg 22%
    16:00 +16°C° 0 mm 2 m/s 676 mmHg 28%
    17:00 +14°C° 0 mm 2 m/s 676 mmHg 34%
    18:00 +10°C° 0 mm 2 m/s 675 mmHg 40%
    19:00 +9°C° 0 mm 2 m/s 676 mmHg 47%
    20:00 +9°C° 0 mm 1 m/s 676 mmHg 54%
    21:00 +8°C° 0 mm 1 m/s 676 mmHg 61%
    22:00 +8°C° 0 mm 1 m/s 676 mmHg 62%
    23:00 +8°C° 0 mm 1 m/s 675 mmHg 63%

    31 Martie, Vineri

    Timp Temperatura Precipitaţii Vânt Presiune Umiditate
    00:00 +8°C° 0 mm 1 m/s 675 mmHg 64%
    01:00 +6°C° 0 mm 2 m/s 675 mmHg 65%
    02:00 +6°C° 0 mm 2 m/s 675 mmHg 65%
    03:00 +6°C° 0 mm 2 m/s 674 mmHg 65%
    04:00 +6°C° 0 mm 2 m/s 675 mmHg 64%
    05:00 +6°C° 0 mm 2 m/s 675 mmHg 63%
    06:00 +7°C° 0 mm 2 m/s 675 mmHg 62%
    07:00 +9°C° 0 mm 3 m/s 675 mmHg 52%
    08:00 +12°C° 0 mm 4 m/s 676 mmHg 43%
    09:00 +15°C° 0 mm 5 m/s 677 mmHg 33%
    10:00 +16°C° 0 mm 5 m/s 677 mmHg 30%
    11:00 +17°C° 0 mm 5 m/s 676 mmHg 27%
    12:00 +20°C° 0 mm 5 m/s 676 mmHg 24%
    13:00 +20°C° 0 mm 5 m/s 675 mmHg 24%
    14:00 +20°C° 0 mm 5 m/s 675 mmHg 25%
    15:00 +20°C° 0 mm 5 m/s 674 mmHg 25%
    16:00 +17°C° 0 mm 5 m/s 674 mmHg 28%
    17:00 +15°C° 0 mm 4 m/s 673 mmHg 32%
    18:00 +13°C° 0 mm 3 m/s 673 mmHg 36%
    19:00 +12°C° 0 mm 3 m/s 673 mmHg 38%
    20:00 +12°C° 0 mm 2 m/s 673 mmHg 40%
    21:00 +12°C° 0 mm 2 m/s 673 mmHg 42%
    22:00 +10°C° 0 mm 2 m/s 673 mmHg 42%
    23:00 +10°C° 0 mm 3 m/s 672 mmHg 41%

    1 Aprilie, Sâmbătă

    Timp Temperatura Precipitaţii Vânt Presiune Umiditate
    00:00 +10°C° 0 mm 3 m/s 672 mmHg 41%
    01:00 +10°C° 0,1 mm 2 m/s 672 mmHg 42%
    02:00 +10°C° 0,1 mm 2 m/s 671 mmHg 44%
    03:00 +9°C° 0,1 mm 2 m/s 671 mmHg 46%
    04:00 +9°C° 0,2 mm 2 m/s 671 mmHg 48%
    05:00 +9°C° 0,2 mm 2 m/s 671 mmHg 50%
    06:00 +9°C° 0,2 mm 2 m/s 671 mmHg 53%
    07:00 +12°C° 0 mm 2 m/s 671 mmHg 48%
    08:00 +13°C° 0 mm 3 m/s 672 mmHg 43%
    09:00 +15°C° 0 mm 4 m/s 672 mmHg 38%
    10:00 +17°C° 0 mm 4 m/s 672 mmHg 34%
    11:00 +17°C° 0 mm 5 m/s 671 mmHg 31%
    12:00 +19°C° 0 mm 6 m/s 671 mmHg 27%
    13:00 +19°C° 0,2 mm 6 m/s 670 mmHg 30%
    14:00 +17°C° 0,2 mm 6 m/s 670 mmHg 33%
    15:00 +16°C° 0,2 mm 6 m/s 669 mmHg 36%
    16:00 +14°C° 1,5 mm 5 m/s 668 mmHg 49%
    17:00 +12°C° 1,5 mm 5 m/s 668 mmHg 62%
    18:00 +10°C° 1,5 mm 4 m/s 668 mmHg 75%
    19:00 +9°C° 0,9 mm 3 m/s 668 mmHg 77%
    20:00 +8°C° 0,9 mm 3 m/s 668 mmHg 79%
    21:00 +7°C° 0,9 mm 2 m/s 668 mmHg 81%
    22:00 +7°C° 0 mm 2 m/s 668 mmHg 82%
    23:00 +6°C° 0 mm 2 m/s 668 mmHg 83%

    2 Aprilie, Duminică

    Timp Temperatura Precipitaţii Vânt Presiune Umiditate
    00:00 +5°C° 0 mm 2 m/s 668 mmHg 84%
    01:00 +5°C° 0 mm 2 m/s 667 mmHg 84%
    02:00 +5°C° 0 mm 2 m/s 667 mmHg 83%
    03:00 +4°C° 0 mm 2 m/s 667 mmHg 83%
    04:00 +4°C° 0 mm 2 m/s 667 mmHg 82%
    05:00 +4°C° 0 mm 2 m/s 667 mmHg 81%
    06:00 +4°C° 0 mm 2 m/s 667 mmHg 80%
    07:00 +5°C° 0 mm 3 m/s 667 mmHg 73%
    08:00 +7°C° 0 mm 4 m/s 668 mmHg 65%
    09:00 +9°C° 0 mm 5 m/s 668 mmHg 58%
    10:00 +9°C° 0,1 mm 6 m/s 668 mmHg 56%
    11:00 +10°C° 0,1 mm 6 m/s 668 mmHg 54%
    12:00 +10°C° 0,1 mm 7 m/s 668 mmHg 51%
    13:00 +11°C° 0,1 mm 7 m/s 668 mmHg 49%
    14:00 +11°C° 0,1 mm 7 m/s 668 mmHg 46%
    15:00 +11°C° 0,1 mm 7 m/s 668 mmHg 44%
    16:00 +10°C° 0 mm 6 m/s 668 mmHg 49%
    17:00 +9°C° 0 mm 5 m/s 668 mmHg 54%
    18:00 +7°C° 0 mm 4 m/s 668 mmHg 60%
    19:00 +7°C° 0 mm 3 m/s 669 mmHg 65%
    20:00 +5°C° 0 mm 3 m/s 669 mmHg 71%
    21:00 +5°C° 0 mm 2 m/s 669 mmHg 76%
    22:00 +5°C° 0 mm 2 m/s 669 mmHg 78%
    23:00 +5°C° 0 mm 2 m/s 668 mmHg 80%
    Arată mai mult